{"data":{"norad_id":65620,"epoch":"2026-05-25T04:43:12.648288Z","epoch_age_seconds":61148,"freshness":"FRESH","line1":"1 65620U 25209D   26145.19667417 -.00000041  00000+0  15622-3 0  9990","line2":"2 65620  50.0001  82.7804 0005411 325.2612  34.7912 13.41468686 34558","mean_motion":13.41468686,"eccentricity":0.0005411,"inclination_deg":50.0001,"raan_deg":82.7804,"arg_perigee_deg":325.2612,"mean_anomaly_deg":34.7912,"bstar":0.00015622,"rev_number":3455,"period_min":107.34503272632,"perigee_km":1099.7647491861,"apogee_km":1107.8617157277,"semimajor_km":7481.9502324569,"source":"CELESTRAK","updated_at":"2026-05-25T13:38:05.555142Z"}}